Time,TemperatureF,DewpointF,PressureIn,WindDirection,WindDirectionDegrees,WindSpeedMPH,WindSpeedGustMPH,Humidity,HourlyPrecipIn,Conditions,Clouds,dailyrainin,SoftwareType,DateUTC
2013-02-20 00:08:00,19.1,12.0,30.05,NNE,26,5.0,6.0,73,0.00,,,0.00,weatherlink.com 1.10,2013-02-20 07:08:00,
2013-02-20 00:23:00,18.8,12.0,30.05,NNE,22,4.0,6.0,74,0.00,,,0.00,weatherlink.com 1.10,2013-02-20 07:23:00,
2013-02-20 00:38:00,18.3,12.0,30.05,NNE,23,7.0,7.0,75,0.00,,,0.00,weatherlink.com 1.10,2013-02-20 07:38:00,
2013-02-20 00:53:00,17.8,11.0,30.04,NNE,14,4.0,6.0,75,0.00,,,0.00,weatherlink.com 1.10,2013-02-20 07:53:00,
2013-02-20 01:08:00,17.2,11.0,30.05,NNE,33,4.0,6.0,77,0.00,,,0.00,weatherlink.com 1.10,2013-02-20 08:08:00,
2013-02-20 01:23:00,16.5,11.0,30.05,NE,36,7.0,7.0,78,0.00,,,0.00,weatherlink.com 1.10,2013-02-20 08:23:00,
2013-02-20 01:38:00,16.7,11.0,30.04,NE,46,5.0,7.0,79,0.00,,,0.00,weatherlink.com 1.10,2013-02-20 08:38:00,
2013-02-20 01:53:00,17.4,12.0,30.04,NE,36,5.0,8.0,80,0.00,,,0.00,weatherlink.com 1.10,2013-02-20 08:53:00,
2013-02-20 02:08:00,17.8,12.0,30.04,NE,40,4.0,5.0,78,0.00,,,0.00,weatherlink.com 1.10,2013-02-20 09:08:00,
2013-02-20 02:23:00,17.8,12.0,30.04,NNE,32,4.0,6.0,78,0.00,,,0.00,weatherlink.com 1.10,2013-02-20 09:23:00,
2013-02-20 02:38:00,18.0,12.0,30.03,NE,40,4.0,6.0,78,0.00,,,0.00,weatherlink.com 1.10,2013-02-20 09:38:00,
2013-02-20 02:53:00,18.2,12.0,30.03,North,356,5.0,5.0,78,0.00,,,0.00,weatherlink.com 1.10,2013-02-20 09:53:00,
2013-02-20 03:08:00,18.1,12.0,30.03,NNE,30,4.0,5.0,78,0.00,,,0.00,weatherlink.com 1.10,2013-02-20 10:08:00,
2013-02-20 03:23:00,18.1,13.0,30.03,NNE,16,4.0,5.0,79,0.00,,,0.00,weatherlink.com 1.10,2013-02-20 10:23:00,
2013-02-20 03:38:00,17.7,12.0,30.02,NNE,18,4.0,5.0,79,0.00,,,0.00,weatherlink.com 1.10,2013-02-20 10:38:00,
2013-02-20 03:53:00,17.5,12.0,30.01,NNE,22,4.0,6.0,80,0.00,,,0.00,weatherlink.com 1.10,2013-02-20 10:53:00,
2013-02-20 04:08:00,17.3,12.0,30.01,NNE,25,5.0,5.0,80,0.00,,,0.00,weatherlink.com 1.10,2013-02-20 11:08:00,
2013-02-20 04:23:00,17.1,12.0,30.02,NNE,25,4.0,5.0,81,0.00,,,0.00,weatherlink.com 1.10,2013-02-20 11:23:00,
2013-02-20 04:38:00,17.1,12.0,30.03,North,356,4.0,5.0,81,0.00,,,0.00,weatherlink.com 1.10,2013-02-20 11:38:00,
2013-02-20 04:53:00,17.0,12.0,30.02,NE,39,5.0,6.0,81,0.00,,,0.00,weatherlink.com 1.10,2013-02-20 11:53:00,
2013-02-20 05:08:00,16.8,12.0,30.01,NNE,22,4.0,5.0,82,0.00,,,0.00,weatherlink.com 1.10,2013-02-20 12:08:00,
2013-02-20 05:23:00,16.9,12.0,30.01,NNE,27,4.0,5.0,82,0.00,,,0.00,weatherlink.com 1.10,2013-02-20 12:23:00,
2013-02-20 05:38:00,16.7,12.0,30.01,NNE,18,3.0,5.0,82,0.00,,,0.00,weatherlink.com 1.10,2013-02-20 12:38:00,
2013-02-20 05:53:00,16.8,13.0,30.01,NNE,20,5.0,6.0,83,0.00,,,0.00,weatherlink.com 1.10,2013-02-20 12:53:00,
2013-02-20 06:08:00,16.9,13.0,30.00,NNE,19,5.0,6.0,83,0.00,,,0.00,weatherlink.com 1.10,2013-02-20 13:08:00,
2013-02-20 06:23:00,16.8,13.0,29.99,NNE,22,5.0,5.0,83,0.00,,,0.00,weatherlink.com 1.10,2013-02-20 13:23:00,
2013-02-20 06:38:00,16.8,13.0,30.00,NNE,14,4.0,5.0,84,0.00,,,0.00,weatherlink.com 1.10,2013-02-20 13:38:00,
2013-02-20 06:53:00,16.7,13.0,30.00,NNE,20,4.0,5.0,84,0.00,,,0.00,weatherlink.com 1.10,2013-02-20 13:53:00,
2013-02-20 07:08:00,16.9,13.0,30.00,NNE,25,4.0,4.0,84,0.00,,,0.00,weatherlink.com 1.10,2013-02-20 14:08:00,
2013-02-20 07:23:00,17.2,13.0,30.00,NNW,347,6.0,7.0,84,0.00,,,0.00,weatherlink.com 1.10,2013-02-20 14:23:00,
2013-02-20 07:39:00,17.8,14.0,30.01,NNE,18,4.0,6.0,84,0.00,,,0.00,weatherlink.com 1.10,2013-02-20 14:39:00,
2013-02-20 07:53:00,18.6,15.0,30.00,NNE,20,4.0,5.0,84,0.00,,,0.00,weatherlink.com 1.10,2013-02-20 14:53:00,
2013-02-20 08:08:00,19.5,15.0,30.00,NNE,32,2.0,6.0,83,0.00,,,0.00,weatherlink.com 1.10,2013-02-20 15:08:00,
2013-02-20 08:23:00,20.3,16.0,30.00,NNE,33,5.0,7.0,82,0.00,,,0.00,weatherlink.com 1.10,2013-02-20 15:23:00,
2013-02-20 08:38:00,21.0,16.0,30.00,NE,35,5.0,10.0,81,0.00,,,0.00,weatherlink.com 1.10,2013-02-20 15:38:00,
2013-02-20 08:53:00,21.7,16.0,30.00,NE,43,4.0,6.0,80,0.00,,,0.00,weatherlink.com 1.10,2013-02-20 15:53:00,
2013-02-20 09:08:00,23.0,17.0,30.00,NE,41,0.0,6.0,78,0.00,,,0.00,weatherlink.com 1.10,2013-02-20 16:08:00,
2013-02-20 09:24:00,24.1,17.0,29.99,NE,35,3.0,4.0,74,0.00,,,0.00,weatherlink.com 1.10,2013-02-20 16:24:00,
2013-02-20 09:39:00,24.7,17.0,29.99,ENE,77,0.0,6.0,72,0.00,,,0.00,weatherlink.com 1.10,2013-02-20 16:39:00,
2013-02-20 09:54:00,24.8,17.0,29.98,ESE,107,2.0,4.0,72,0.00,,,0.00,weatherlink.com 1.10,2013-02-20 16:54:00,
2013-02-20 10:09:00,24.9,17.0,29.99,ESE,114,4.0,6.0,72,0.00,,,0.00,weatherlink.com 1.10,2013-02-20 17:09:00,
2013-02-20 10:24:00,25.4,17.0,29.98,SSE,150,2.0,5.0,70,0.00,,,0.00,weatherlink.com 1.10,2013-02-20 17:24:00,
2013-02-20 10:39:00,26.2,18.0,29.98,SW,229,3.0,3.0,70,0.00,,,0.00,weatherlink.com 1.10,2013-02-20 17:39:00,
2013-02-20 10:54:00,26.8,17.0,29.98,WSW,238,3.0,3.0,67,0.00,,,0.00,weatherlink.com 1.10,2013-02-20 17:54:00,
2013-02-20 11:09:00,27.1,17.0,29.98,ESE,122,0.0,6.0,66,0.00,,,0.00,weatherlink.com 1.10,2013-02-20 18:09:00,
2013-02-20 11:24:00,28.4,18.0,29.97,WSW,256,2.0,5.0,65,0.00,,,0.00,weatherlink.com 1.10,2013-02-20 18:24:00,
2013-02-20 11:39:00,30.2,18.0,29.97,SSW,195,1.0,5.0,61,0.00,,,0.00,weatherlink.com 1.10,2013-02-20 18:39:00,
2013-02-20 11:54:00,29.8,17.0,29.95,SSE,163,5.0,10.0,60,0.00,,,0.00,weatherlink.com 1.10,2013-02-20 18:54:00,
2013-02-20 12:09:00,30.4,17.0,29.95,East,92,0.0,6.0,59,0.00,,,0.00,weatherlink.com 1.10,2013-02-20 19:09:00,
2013-02-20 12:24:00,32.1,18.0,29.94,ESE,103,6.0,11.0,57,0.00,,,0.00,weatherlink.com 1.10,2013-02-20 19:24:00,
2013-02-20 12:39:00,33.2,18.0,29.93,SSE,153,3.0,8.0,54,0.00,,,0.00,weatherlink.com 1.10,2013-02-20 19:39:00,
2013-02-20 12:54:00,33.3,18.0,29.92,SE,127,3.0,9.0,54,0.00,,,0.00,weatherlink.com 1.10,2013-02-20 19:54:00,
2013-02-20 13:09:00,34.3,18.0,29.91,SE,141,3.0,10.0,52,0.00,,,0.00,weatherlink.com 1.10,2013-02-20 20:09:00,
2013-02-20 13:24:00,34.7,17.0,29.90,ESE,120,5.0,9.0,49,0.00,,,0.00,weatherlink.com 1.10,2013-02-20 20:24:00,
2013-02-20 13:39:00,35.3,19.0,29.89,ESE,105,7.0,9.0,51,0.00,,,0.00,weatherlink.com 1.10,2013-02-20 20:39:00,
2013-02-20 13:54:00,35.7,19.0,29.88,ESE,113,11.0,12.0,50,0.00,,,0.00,weatherlink.com 1.10,2013-02-20 20:54:00,
2013-02-20 14:09:00,32.3,22.0,29.88,ENE,65,5.0,16.0,67,0.00,,,0.00,weatherlink.com 1.10,2013-02-20 21:09:00,
2013-02-20 14:24:00,30.6,23.0,29.88,ESE,122,7.0,17.0,74,0.00,,,0.00,weatherlink.com 1.10,2013-02-20 21:24:00,
2013-02-20 14:39:00,30.9,24.0,29.88,East,99,9.0,17.0,75,0.00,,,0.00,weatherlink.com 1.10,2013-02-20 21:39:00,
2013-02-20 14:54:00,30.7,24.0,29.87,East,86,8.0,16.0,76,0.00,,,0.00,weatherlink.com 1.10,2013-02-20 21:54:00,
2013-02-20 15:10:00,29.7,24.0,29.88,ENE,65,6.0,15.0,78,0.00,,,0.00,weatherlink.com 1.10,2013-02-20 22:10:00,
2013-02-20 15:25:00,29.6,24.0,29.88,ESE,106,12.0,14.0,80,0.00,,,0.00,weatherlink.com 1.10,2013-02-20 22:25:00,
2013-02-20 15:40:00,28.0,24.0,29.89,ENE,58,12.0,17.0,83,0.00,,,0.00,weatherlink.com 1.10,2013-02-20 22:40:00,
2013-02-20 15:55:00,26.7,23.0,29.89,East,81,14.0,19.0,86,0.00,,,0.00,weatherlink.com 1.10,2013-02-20 22:55:00,
2013-02-20 16:10:00,26.3,23.0,29.89,ESE,109,15.0,19.0,87,0.00,,,0.00,weatherlink.com 1.10,2013-02-20 23:10:00,
2013-02-20 16:25:00,25.8,23.0,29.90,NE,47,9.0,15.0,87,0.00,,,0.00,weatherlink.com 1.10,2013-02-20 23:25:00,
2013-02-20 16:40:00,25.7,22.0,29.90,SE,142,8.0,14.0,87,0.00,,,0.00,weatherlink.com 1.10,2013-02-20 23:40:00,
2013-02-20 16:55:00,25.3,22.0,29.91,ENE,68,14.0,17.0,87,0.00,,,0.00,weatherlink.com 1.10,2013-02-20 23:55:00,
2013-02-20 17:10:00,25.1,22.0,29.91,East,85,16.0,16.0,86,0.00,,,0.00,weatherlink.com 1.10,2013-02-21 00:10:00,
2013-02-20 17:25:00,25.1,21.0,29.92,ESE,108,4.0,13.0,85,0.00,,,0.00,weatherlink.com 1.10,2013-02-21 00:25:00,
2013-02-20 17:40:00,25.0,21.0,29.92,East,86,12.0,16.0,85,0.00,,,0.00,weatherlink.com 1.10,2013-02-21 00:40:00,
2013-02-20 17:55:00,24.7,21.0,29.93,East,84,10.0,13.0,85,0.00,,,0.00,weatherlink.com 1.10,2013-02-21 00:55:00,
2013-02-20 18:10:00,24.0,21.0,29.93,ESE,103,8.0,13.0,87,0.00,,,0.00,weatherlink.com 1.10,2013-02-21 01:10:00,
2013-02-20 18:25:00,23.6,20.0,29.94,NE,46,8.0,13.0,86,0.00,,,0.00,weatherlink.com 1.10,2013-02-21 01:25:00,
2013-02-20 18:40:00,23.4,20.0,29.94,East,79,7.0,12.0,87,0.00,,,0.00,weatherlink.com 1.10,2013-02-21 01:40:00,
2013-02-20 18:55:00,23.1,20.0,29.94,ENE,76,7.0,13.0,87,0.00,,,0.00,weatherlink.com 1.10,2013-02-21 01:55:00,
2013-02-20 19:10:00,22.7,20.0,29.95,East,85,10.0,15.0,89,0.00,,,0.00,weatherlink.com 1.10,2013-02-21 02:10:00,
2013-02-20 19:25:00,22.4,20.0,29.95,ESE,112,12.0,12.0,90,0.00,,,0.00,weatherlink.com 1.10,2013-02-21 02:25:00,
2013-02-20 19:40:00,21.9,20.0,29.96,East,79,8.0,9.0,90,0.00,,,0.00,weatherlink.com 1.10,2013-02-21 02:40:00,
2013-02-20 19:55:00,21.1,18.0,29.97,ESE,119,6.0,7.0,89,0.00,,,0.00,weatherlink.com 1.10,2013-02-21 02:55:00,
2013-02-20 20:10:00,21.1,19.0,29.97,ENE,71,2.0,5.0,90,0.00,,,0.00,weatherlink.com 1.10,2013-02-21 03:10:00,
2013-02-20 20:25:00,20.2,18.0,29.98,ENE,70,5.0,10.0,89,0.00,,,0.00,weatherlink.com 1.10,2013-02-21 03:25:00,
2013-02-20 20:40:00,20.0,18.0,29.98,East,80,3.0,6.0,90,0.00,,,0.00,weatherlink.com 1.10,2013-02-21 03:40:00,
2013-02-20 20:55:00,19.3,17.0,29.98,ENE,67,5.0,9.0,89,0.00,,,0.00,weatherlink.com 1.10,2013-02-21 03:55:00,
2013-02-20 21:10:00,18.8,16.0,29.98,ENE,72,1.0,5.0,90,0.00,,,0.00,weatherlink.com 1.10,2013-02-21 04:10:00,
2013-02-20 21:25:00,18.6,16.0,29.99,ENE,59,1.0,3.0,90,0.00,,,0.00,weatherlink.com 1.10,2013-02-21 04:25:00,
2013-02-20 21:40:00,18.8,16.0,30.00,NE,56,1.0,6.0,90,0.00,,,0.00,weatherlink.com 1.10,2013-02-21 04:40:00,
2013-02-20 21:55:00,18.9,17.0,30.00,ENE,65,1.0,3.0,90,0.00,,,0.00,weatherlink.com 1.10,2013-02-21 04:55:00,
2013-02-20 22:10:00,18.6,16.0,30.00,ENE,76,1.0,3.0,89,0.00,,,0.00,weatherlink.com 1.10,2013-02-21 05:10:00,
2013-02-20 22:25:00,18.4,16.0,30.00,NE,55,1.0,3.0,90,0.00,,,0.00,weatherlink.com 1.10,2013-02-21 05:25:00,
2013-02-20 22:40:00,18.3,16.0,30.01,ENE,64,2.0,4.0,90,0.00,,,0.00,weatherlink.com 1.10,2013-02-21 05:40:00,
2013-02-20 22:55:00,18.1,16.0,30.01,NE,51,2.0,4.0,90,0.00,,,0.00,weatherlink.com 1.10,2013-02-21 05:55:00,
2013-02-20 23:10:00,17.9,16.0,30.01,ENE,69,1.0,5.0,90,0.00,,,0.00,weatherlink.com 1.10,2013-02-21 06:10:00,
2013-02-20 23:25:00,17.8,15.0,30.01,NE,40,5.0,6.0,90,0.00,,,0.00,weatherlink.com 1.10,2013-02-21 06:25:00,
2013-02-20 23:40:00,17.6,15.0,30.01,ENE,69,0.0,2.0,90,0.00,,,0.00,weatherlink.com 1.10,2013-02-21 06:40:00,
2013-02-20 23:55:00,17.4,15.0,30.01,ENE,72,0.0,3.0,90,0.00,,,0.00,weatherlink.com 1.10,2013-02-21 06:55:00,